Погода в Графовке

Россия / Белгородская область     50°24′17″N   36°44′24″E
темп.,
°C
ветер,
м/с
пор.,
м/с
влажн.,
%
обл.,
%
осадки,
мм/ч
давл.,
гПа
погр.,
м
6 мая, чт
чт600:00+12ю4970100 0.0 1014208
03:00+10ю51170100 0.0 1013282
06:00+9ю3978100 0.0 1013241
09:00+12ю71259100 0.0 1012721
12:00+16ю8115297 0.0 10121585
15:00+18ююз794765 0.0 10112155
18:00+14з4871100 0.1 1010360
21:00+12з5973100 0.1 1011419
7 мая, пт
пт700:00+9сз4893100 1.2 1013568
03:00+8сз369117 2.9 1014364
06:00+7зсз259421 0.0 1015170
09:00+11сз23720 0.0 1016660
12:00+15з12465 0.0 10161868
15:00+16ююз234199 0.0 10151939
18:00+15ююв355592 0.0 1014516
21:00+12юв3864100 0.0 1014134
8 мая, сб
сб800:00+10юв41267100 0.0 1013262
03:00+11ююв71463100 0.0 1011409
06:00+11ю51481100 0.3 1010539
09:00+11ю61387100 0.7 1009597
12:00+11ю71495100 3.3 1008868
15:00+10сз61195100 9.6 1010663
18:00+10з5990100 1.4 1011624
21:00+7сз61183100 1.4 1014647
9 мая, вс
вс900:00+6зсз41085100 0.0 1015549
03:00+5сз51084100 0.0 1016523
06:00+4сз5118798 0.0 1018402
09:00+8ссз6970100 0.0 1019875
12:00+11ссз7855100 0.1 10191997
15:00+12ссз794997 0.2 10202270
18:00+11ссз6106061 0.0 10221879
21:00+6ссз411760 0.1 1024240
10 мая, пн
пн1000:00+4ссз410830 0.0 1026237
03:00+3ссз411850 0.0 1027264
06:00+4с513824 0.0 1028422
09:00+10с8136483 0.0 10271127
12:00+13ссв912525 0.0 10261505
15:00+12ссв71257100 0.0 1025995
18:00+12ссв7146097 0.0 1024921
21:00+11ссв81662100 0.0 1025748